CW0351 Weather Reports


Display with metric or nautical units.
time (UTC)temp
F
wind
direction
speed
MPH
gust
MPH
rain 1hr
in
rain 24hr
in
rain mn
in
humidity
%
barometer
mb
20260505100055 54 0 0.0 0.0 0.00 0.00 0.00 75 1010.8
20260505094553 54 0 0.0 0.0 0.00 0.00 0.00 75 1010.5
20260505093051 54 0 0.0 0.0 0.00 0.00 0.00 74 1010.6
20260505091557 54 0 0.0 0.0 0.00 0.00 0.00 74 1010.6
20260505090101 54 0 0.0 0.0 0.00 0.00 0.00 72 1010.3
20260505084552 55 0 0.0 0.0 0.00 0.00 0.00 71 1010.2
20260505083054 56 0 0.0 0.0 0.00 0.00 0.00 70 1010.4
20260505081602 56 0 0.0 0.0 0.00 0.00 0.00 69 1010.4
20260505080055 56 0 0.0 0.0 0.00 0.00 0.00 68 1010.4
20260505074607 57 0 0.0 0.0 0.00 0.00 0.00 68 1010.6
20260505073054 57 0 0.0 0.0 0.00 0.00 0.00 66 1010.5
20260505071554 58 0 0.0 0.0 0.00 0.00 0.00 64 1010.4
20260505070055 58 0 0.0 3.0 0.00 0.00 0.00 63 1010.5
20260505064556 58 0 0.0 0.0 0.00 0.00 0.00 62 1010.5
20260505063057 59 0 0.0 3.0 0.00 0.00 0.00 61 1010.4
20260505061618 59 0 0.0 4.0 0.00 0.00 0.00 60 1010.4
20260505060053 60 0 0.0 8.0 0.00 0.00 0.00 58 1010.4
20260505054616 60 0 0.0 5.0 0.00 0.00 0.00 58 1010.4
20260505053051 60 0 0.0 5.0 0.00 0.00 0.00 57 1010.4
20260505051558 60 0 0.0 6.0 0.00 0.00 0.00 55 1010.5
20260505050105 61 0 0.0 8.0 0.00 0.00 0.00 54 1010.4
20260505041558 59 0 0.0 6.0 0.00 0.00 0.00 53 1010.5
20260505040100 59 0 0.0 2.0 0.00 0.00 0.00 53 1010.4
20260505034553 59 0 0.0 0.0 0.00 0.00 0.00 53 1010.4
20260505033055 59 0 0.0 3.0 0.00 0.00 0.00 53 1010.4
20260505031601 59 0 0.0 0.0 0.00 0.00 0.00 53 1010.4
20260505030056 58 0 0.0 0.0 0.00 0.00 0.00 55 1010.3
20260505024607 58 0 0.0 0.0 0.00 0.00 0.00 56 1010.5
20260505023054 58 0 0.0 0.0 0.00 0.00 0.00 56 1010.7
20260505021609 59 0 0.0 0.0 0.00 0.00 0.00 54 1010.7
20260505020055 60 0 0.0 0.0 0.00 0.00 0.00 51 1010.7
20260505014555 59 0 0.0 0.0 0.00 0.00 0.00 51 1010.6
20260505013058 60 0 0.0 0.0 0.00 0.00 0.00 50 1010.5
20260505011558 61 0 0.0 0.0 0.00 0.00 0.00 48 1010.4
20260505010057 62 0 0.0 0.0 0.00 0.00 0.00 45 1010.2
20260505004557 63 0 0.0 0.0 0.00 0.00 0.00 43 1010.0
20260505003054 65 0 0.0 0.0 0.00 0.00 0.00 40 1010.0
20260505001557 66 0 0.0 0.0 0.00 0.00 0.00 39 1009.9
20260505000059 67 0 0.0 5.0 0.00 0.00 0.00 37 1009.7
20260504234555 67 0 0.0 9.0 0.00 0.00 0.00 37 1009.8
20260504233102 68 0 0.0 8.0 0.00 0.00 0.00 35 1009.6
20260504231556 69 200 3.0 13.0 0.00 0.00 0.00 33 1009.5
20260504230058 69 0 1.0 11.0 0.00 0.00 0.00 33 1009.5
20260504224554 69 0 0.0 10.0 0.00 0.00 0.00 35 1009.4
20260504223102 70 0 2.0 12.0 0.00 0.00 0.00 33 1009.4
20260504221606 70 0 2.0 12.0 0.00 0.00 0.00 33 1009.6
20260504220136 72 198 1.0 8.0 0.00 0.00 0.00 32 1009.7
20260504214558 72 0 1.0 14.0 0.00 0.00 0.00 34 1009.6
20260504213126 72 0 4.0 13.0 0.00 0.00 0.00 31 1009.6
20260504211558 72 211 0.0 13.0 0.00 0.00 0.00 32 1009.6
20260504210101 73 173 1.0 11.0 0.00 0.00 0.00 31 1009.6
20260504204603 73 250 1.0 9.0 0.00 0.00 0.00 30 1009.8
20260504203053 72 207 3.0 14.0 0.00 0.00 0.00 31 1009.9
20260504201554 72 259 6.0 15.0 0.00 0.00 0.00 32 1010.0
20260504200110 72 213 4.0 13.0 0.00 0.00 0.00 31 1010.1
20260504194549 72 273 2.0 15.0 0.00 0.00 0.00 31 1010.2
20260504193051 72 225 2.0 15.0 0.00 0.00 0.00 31 1010.2
20260504191559 72 128 0.0 10.0 0.00 0.00 0.00 31 1010.2
20260504190054 71 242 4.0 13.0 0.00 0.00 0.00 34 1010.4
20260504184600 71 225 2.0 14.0 0.00 0.00 0.00 29 1010.7
20260504183051 71 242 4.0 12.0 0.00 0.00 0.00 30 1011.0
20260504181553 70 0 2.0 13.0 0.00 0.00 0.00 35 1011.0
20260504180055 69 202 4.0 13.0 0.00 0.00 0.00 33 1011.4
20260504174556 70 0 4.0 12.0 0.00 0.00 0.00 34 1011.6
20260504173100 69 208 3.0 13.0 0.00 0.00 0.00 34 1011.8
20260504171556 68 268 2.0 15.0 0.00 0.00 0.00 37 1012.0
20260504160106 66 212 3.0 11.0 0.00 0.00 0.00 36 1013.0
20260504081552 40 0 0.0 0.0 0.00 0.00 0.00 75 1014.4
20260504044554 43 0 0.0 0.0 0.00 0.00 0.00 63 1014.3
20260504043058 43 0 0.0 0.0 0.00 0.00 0.00 62 1014.2
20260504041554 44 0 0.0 0.0 0.00 0.00 0.00 61 1014.0
20260504040053 44 0 0.0 0.0 0.00 0.00 0.00 60 1013.8
20260504034554 44 0 0.0 0.0 0.00 0.00 0.00 59 1013.8
20260504033054 45 0 0.0 0.0 0.00 0.00 0.00 58 1013.7
20260504031551 45 0 0.0 0.0 0.00 0.00 0.00 58 1013.7
20260504030052 45 0 0.0 0.0 0.00 0.00 0.00 58 1013.5
20260504024553 45 0 0.0 0.0 0.00 0.00 0.00 59 1013.6
20260504023057 45 0 0.0 0.0 0.00 0.00 0.00 58 1013.6
20260504021555 46 0 0.0 0.0 0.00 0.00 0.00 55 1013.7
20260504020127 47 0 0.0 0.0 0.00 0.00 0.00 53 1013.5
20260504014601 48 0 0.0 0.0 0.00 0.00 0.00 53 1013.4
20260504013105 48 0 0.0 0.0 0.00 0.00 0.00 50 1013.5
20260504011553 49 0 0.0 0.0 0.00 0.00 0.00 47 1013.3
20260504010051 51 0 0.0 0.0 0.00 0.00 0.00 45 1013.0
20260504004623 52 0 0.0 0.0 0.00 0.00 0.00 42 1012.9
20260504003059 53 0 0.0 0.0 0.00 0.00 0.00 40 1012.7
20260504001619 54 0 0.0 2.0 0.00 0.00 0.00 40 1012.5
20260504000101 55 0 0.0 4.0 0.00 0.00 0.00 37 1012.4
20260503234604 56 0 0.0 3.0 0.00 0.00 0.00 34 1012.2
20260503233052 57 0 0.0 7.0 0.00 0.00 0.00 32 1012.2
20260503231550 57 0 0.0 11.0 0.00 0.00 0.00 32 1012.2
20260503230110 58 0 0.0 11.0 0.00 0.00 0.00 32 1011.9
20260503224556 58 227 1.0 7.0 0.00 0.00 0.00 31 1012.1
20260503223051 58 0 2.0 11.0 0.00 0.00 0.00 28 1012.0
20260503221603 59 0 2.0 13.0 0.00 0.00 0.00 27 1011.9